K9APR Weather Reports


time (UTC)temp
F
wind
direction
speed
knots
gust
knots
rain 1hr
in
rain 24hr
in
rain mn
in
humidity
%
barometer
mb
20260904153922 88 308 0.9 2.6 0.00 0.00 0.00 72 1015.6
20260904153023 88 308 0.0 0.9 0.00 0.00 0.00 74 1015.4
20260904152123 87 274 0.9 1.7 0.00 0.00 0.00 75 1015.4
20260904151222 86 305 0.9 2.6 0.00 0.00 0.00 76 1015.3
20260904150323 85 315 0.0 0.9 0.00 0.00 0.00 78 1015.4
20260904144523 84 314 0.9 1.7 0.00 0.00 0.00 78 1015.3
20260904143622 83 305 1.7 2.6 0.00 0.00 0.00 79 1015.2
20260904142756 83 310 0.0 0.9 0.00 0.00 0.00 82 1015.2
20260904142722 83 310 0.0 0.9 0.00 0.00 0.00 82 1015.2
20260904141937 82 307 0.0 1.7 0.00 0.00 0.00 83 1015.1
20260904141854 82 307 0.0 1.7 0.00 0.00 0.00 83 1015.1
20260904141823 82 307 0.0 1.7 0.00 0.00 0.00 83 1015.1
20260904141104 81 295 0.0 0.0 0.00 0.00 0.00 84 1015.1
20260904140923 81 295 0.0 0.0 0.00 0.00 0.00 84 1015.1
20260904140056 80 258 0.0 0.0 0.00 0.00 0.00 85 1015.1
20260904140024 80 258 0.0 0.0 0.00 0.00 0.00 85 1015.1
20260904135249 79 185 0.0 0.0 0.00 0.00 0.00 86 1015.1
20260904135213 79 185 0.0 0.0 0.00 0.00 0.00 86 1015.1
20260904135123 79 185 0.0 0.0 0.00 0.00 0.00 86 1015.1
20260904134259 78 164 0.0 0.0 0.00 0.00 0.00 86 1015.2
20260904134223 78 164 0.0 0.0 0.00 0.00 0.00 86 1015.2
20260904133322 77 176 0.0 0.0 0.00 0.00 0.00 87 1015.2
20260904132609 77 162 0.0 0.0 0.00 0.00 0.00 88 1015.3
20260904132422 77 162 0.0 0.0 0.00 0.00 0.00 88 1015.3
20260904130653 76 193 0.0 0.0 0.00 0.00 0.00 88 1015.3
20260904130622 76 193 0.0 0.0 0.00 0.00 0.00 88 1015.3
20260904130035 75 192 0.0 0.0 0.00 0.00 0.00 89 1015.5
20260904125826 75 192 0.0 0.0 0.00 0.00 0.00 89 1015.5
20260904125755 75 192 0.0 0.0 0.00 0.00 0.00 89 1015.5
20260904125722 75 192 0.0 0.0 0.00 0.00 0.00 89 1015.5
20260904124822 75 192 0.0 0.0 0.00 0.00 0.00 89 1015.4
20260904124011 74 187 0.0 0.0 0.00 0.00 0.00 89 1015.2
20260904123923 74 187 0.0 0.0 0.00 0.00 0.00 89 1015.2
20260904123023 74 172 0.0 0.0 0.00 0.00 0.00 89 1015.2
20260904122202 73 172 0.0 0.0 0.00 0.00 0.00 89 1015.1
20260904122124 73 172 0.0 0.0 0.00 0.00 0.00 89 1015.1
20260904121255 73 172 0.0 0.0 0.00 0.00 0.00 90 1015.1
20260904121222 73 172 0.0 0.0 0.00 0.00 0.00 90 1015.1
20260904120324 73 172 0.0 0.0 0.00 0.00 0.00 90 1015.0
20260904115454 73 172 0.0 0.0 0.00 0.00 0.00 90 1014.8
20260904115422 73 172 0.0 0.0 0.00 0.00 0.00 90 1014.8
20260904114746 73 172 0.0 0.0 0.00 0.00 0.00 90 1014.6
20260904114526 73 172 0.0 0.0 0.00 0.00 0.00 90 1014.6
20260904113700 73 172 0.0 0.0 0.00 0.00 0.00 90 1014.6
20260904113622 73 172 0.0 0.0 0.00 0.00 0.00 90 1014.6
20260904112815 73 172 0.0 0.0 0.00 0.00 0.00 90 1014.4
20260904112723 73 172 0.0 0.0 0.00 0.00 0.00 90 1014.4
20260904111822 73 172 0.0 0.0 0.00 0.00 0.00 90 1014.3
20260904111020 72 172 0.0 0.0 0.00 0.00 0.00 90 1014.2
20260904110922 72 172 0.0 0.0 0.00 0.00 0.00 90 1014.2
20260904110159 72 172 0.0 0.0 0.00 0.00 0.00 90 1014.1
20260904110029 72 172 0.0 0.0 0.00 0.00 0.00 90 1014.1
20260904105200 73 172 0.0 0.0 0.00 0.00 0.00 90 1014.1
20260904105124 73 172 0.0 0.0 0.00 0.00 0.00 90 1014.1
20260904104223 73 172 0.0 0.0 0.00 0.00 0.00 90 1013.9
20260904103402 73 172 0.0 0.0 0.00 0.00 0.00 90 1013.8
20260904103322 73 172 0.0 0.0 0.00 0.00 0.00 90 1013.8
20260904102515 73 172 0.0 0.0 0.00 0.00 0.00 90 1013.8
20260904102421 73 172 0.0 0.0 0.00 0.00 0.00 90 1013.8
20260904100658 73 171 0.0 0.0 0.00 0.00 0.00 90 1013.9
20260904095805 73 171 0.0 0.0 0.00 0.00 0.00 90 1013.9
20260904095723 73 171 0.0 0.0 0.00 0.00 0.00 90 1013.9
20260904094856 74 171 0.0 0.0 0.00 0.00 0.00 90 1013.9
20260904094823 74 171 0.0 0.0 0.00 0.00 0.00 90 1013.9
20260904093953 74 171 0.0 0.0 0.00 0.00 0.00 90 1013.8
20260904093921 74 171 0.0 0.0 0.00 0.00 0.00 90 1013.8
20260904093119 73 171 0.0 0.0 0.00 0.00 0.00 90 1013.9
20260904093022 73 171 0.0 0.0 0.00 0.00 0.00 90 1013.9
20260904092504 73 171 0.0 0.0 0.00 0.00 0.00 90 1013.8
20260904092246 73 171 0.0 0.0 0.00 0.00 0.00 90 1013.8
20260904092153 73 171 0.0 0.0 0.00 0.00 0.00 90 1013.8
20260904092122 73 171 0.0 0.0 0.00 0.00 0.00 90 1013.8
20260904091221 74 171 0.0 0.0 0.00 0.00 0.00 91 1013.9
20260904090509 74 171 0.0 0.0 0.00 0.00 0.00 91 1013.9
20260904090352 74 171 0.0 0.0 0.00 0.00 0.00 91 1013.9
20260904090321 74 171 0.0 0.0 0.00 0.00 0.00 91 1013.9
20260904085422 73 171 0.0 0.0 0.00 0.00 0.00 91 1013.8
20260904084524 73 171 0.0 0.0 0.00 0.00 0.00 91 1013.8
20260904083623 73 337 0.0 0.0 0.00 0.00 0.00 91 1013.8
20260904082722 73 337 0.0 0.0 0.00 0.00 0.00 91 1013.9
20260904081822 72 337 0.0 0.0 0.00 0.00 0.00 91 1013.8
20260904080923 72 337 0.0 0.0 0.00 0.00 0.00 91 1014.0
20260904080058 72 337 0.0 0.0 0.00 0.00 0.00 91 1014.0
20260904080022 72 337 0.0 0.0 0.00 0.00 0.00 91 1014.0
20260904075122 72 337 0.0 0.0 0.00 0.00 0.00 91 1014.1
20260904074255 72 337 0.0 0.0 0.00 0.00 0.00 91 1014.1
20260904074222 72 337 0.0 0.0 0.00 0.00 0.00 91 1014.1
20260904073322 72 337 0.0 0.0 0.00 0.00 0.00 90 1014.2
20260904072453 72 337 0.0 0.0 0.00 0.00 0.00 90 1014.3
20260904072422 72 337 0.0 0.0 0.00 0.00 0.00 90 1014.3
20260904071558 72 337 0.0 0.0 0.00 0.00 0.00 90 1014.5
20260904071523 72 337 0.0 0.0 0.00 0.00 0.00 90 1014.5
20260904070622 72 337 0.0 0.0 0.00 0.00 0.00 90 1014.6
20260904065723 72 337 0.0 0.0 0.00 0.00 0.00 90 1014.7
20260904064822 73 337 0.0 0.0 0.00 0.00 0.00 90 1014.6
20260904063922 73 337 0.0 0.0 0.00 0.00 0.00 90 1014.7
20260904063021 73 337 0.0 0.0 0.00 0.00 0.00 89 1014.8
20260904062122 73 337 0.0 0.0 0.00 0.00 0.00 89 1014.7
20260904061257 73 337 0.0 0.0 0.00 0.00 0.00 89 1014.8
20260904061221 73 337 0.0 0.0 0.00 0.00 0.00 89 1014.8
20260904060522 74 337 0.0 0.0 0.00 0.00 0.00 89 1014.8
20260904060405 74 337 0.0 0.0 0.00 0.00 0.00 90 1014.9
20260904060321 74 337 0.0 0.0 0.00 0.00 0.00 89 1014.8
20260904060308 74 337 0.0 0.0 0.00 0.00 0.00 90 1014.9
20260904055425 74 337 0.0 0.0 0.00 0.00 0.00 90 1014.9
20260904054522 74 337 0.0 0.0 0.00 0.00 0.00 89 1014.9
20260904053621 74 337 0.0 0.0 0.00 0.00 0.00 89 1015.0
20260904052723 74 337 0.0 0.0 0.00 0.00 0.00 89 1015.0
20260904051821 74 337 0.0 0.0 0.00 0.00 0.00 89 1014.9
20260904050921 74 337 0.0 0.0 0.00 0.00 0.00 89 1014.9
20260904050100 74 337 0.0 0.0 0.00 0.00 0.00 88 1014.9
20260904050022 74 337 0.0 0.0 0.00 0.00 0.00 88 1014.9
20260904045123 74 337 0.0 0.0 0.00 0.00 0.00 88 1014.8
20260904044222 75 337 0.0 0.0 0.00 0.00 0.00 88 1014.8
20260904043322 75 337 0.0 0.0 0.00 0.00 0.00 88 1014.7
20260904042422 74 337 0.0 0.0 0.00 0.00 0.00 88 1014.6
20260904041522 74 337 0.0 0.0 0.00 0.00 0.00 88 1014.6
20260904040622 74 337 0.0 0.0 0.00 0.00 0.00 88 1014.6
20260904035722 75 337 0.0 0.0 0.00 0.00 0.00 88 1014.5
20260904034821 75 337 0.0 0.0 0.00 0.00 0.00 88 1014.6
20260904033921 75 337 0.0 0.0 0.00 0.00 0.00 87 1014.6
20260904033022 76 337 0.0 0.0 0.00 0.00 0.00 87 1014.6
20260904032122 77 337 0.0 0.0 0.00 0.00 0.00 86 1014.6
20260904031222 77 337 0.0 0.0 0.00 0.00 0.00 86 1014.8
20260904030322 78 337 0.0 0.0 0.00 0.00 0.00 86 1014.7
20260904025423 78 337 0.0 0.0 0.00 0.00 0.00 86 1014.9
20260904024522 78 337 0.0 0.0 0.00 0.00 0.00 85 1014.8
20260904023624 79 337 0.0 0.0 0.00 0.00 0.00 85 1014.9
20260904022721 79 337 0.0 0.0 0.00 0.00 0.00 84 1014.9
20260904021821 80 337 0.0 0.0 0.00 0.00 0.00 84 1014.9
20260904020921 81 125 0.0 0.0 0.00 0.00 0.00 83 1014.9
20260904020022 81 125 0.0 0.0 0.00 0.00 0.00 80 1014.7
20260904015122 82 125 0.0 0.0 0.00 0.00 0.00 79 1014.6
20260904014222 82 132 0.0 1.7 0.00 0.00 0.00 79 1014.6
20260904013322 82 137 0.0 0.0 0.00 0.00 0.00 79 1014.3
20260904012422 82 137 0.0 0.0 0.00 0.00 0.00 79 1014.1
20260904011522 82 138 0.0 0.9 0.00 0.00 0.00 79 1014.1
20260904010625 82 138 0.0 0.0 0.00 0.00 0.00 78 1014.1
20260904005722 82 117 0.0 0.0 0.00 0.00 0.00 79 1013.9
20260904004821 83 119 0.0 0.9 0.00 0.00 0.00 79 1014.0
20260904003921 83 143 0.0 0.0 0.00 0.00 0.00 78 1013.9
20260904003022 84 143 0.0 0.0 0.00 0.00 0.00 77 1013.9
20260904002123 84 143 0.0 0.0 0.00 0.00 0.00 76 1013.9
20260904001223 84 143 0.0 0.0 0.00 0.00 0.00 76 1014.0
20260904000322 85 143 0.0 0.0 0.00 0.00 0.00 74 1014.0
20260903235422 85 143 0.0 0.0 0.00 0.00 0.00 74 1014.0
20260903234522 85 143 0.0 0.0 0.00 0.00 0.00 73 1014.0
20260903232722 86 144 0.0 0.0 0.00 0.00 0.00 71 1013.7
20260903231822 87 151 0.0 0.0 0.00 0.00 0.00 70 1013.5
20260903230922 87 150 0.0 0.0 0.00 0.00 0.00 69 1013.4
20260903230022 88 214 0.0 0.0 0.00 0.00 0.00 67 1013.5
20260903225122 88 215 0.0 0.9 0.00 0.00 0.00 68 1013.4
20260903224505 89 155 0.0 0.0 0.00 0.00 0.00 68 1013.5
20260903223603 89 146 0.0 0.9 0.00 0.00 0.00 67 1013.6
20260903222703 90 301 0.0 0.0 0.00 0.00 0.00 66 1013.4
20260903221803 90 302 0.0 0.9 0.00 0.00 0.00 66 1013.5
20260903220904 91 326 0.0 0.9 0.00 0.00 0.00 63 1013.3
20260903220004 92 303 0.9 2.6 0.00 0.00 0.00 63 1013.3
20260903215104 93 130 0.0 0.0 0.00 0.00 0.00 61 1013.2
20260903214203 93 212 0.0 1.7 0.00 0.00 0.00 64 1013.2
20260903213304 92 303 0.0 0.9 0.00 0.00 0.00 62 1013.2
20260903212404 92 250 0.9 1.7 0.00 0.00 0.00 62 1013.1
20260903211558 93 296 0.0 1.7 0.00 0.00 0.00 62 1013.1
20260903210603 93 219 0.0 1.7 0.00 0.00 0.00 63 1013.2
20260903205704 93 308 0.9 0.9 0.00 0.00 0.00 61 1013.2
20260903204804 93 23 0.0 0.9 0.00 0.00 0.00 62 1013.3
20260903203904 93 320 0.9 0.9 0.00 0.00 0.00 61 1013.3
20260903203004 93 172 0.9 4.3 0.00 0.00 0.00 60 1013.4
20260903202837 93 203 0.0 0.9 0.00 0.00 0.00 61 1013.4
20260903201937 93 304 0.9 2.6 0.00 0.00 0.00 60 1013.5
20260903201038 92 277 0.9 1.7 0.00 0.00 0.00 62 1013.6
20260903200137 93 303 1.7 2.6 0.00 0.00 0.00 61 1013.8
20260903195239 93 119 0.0 1.7 0.00 0.00 0.00 60 1014.3
20260903194338 92 277 0.9 2.6 0.00 0.00 0.00 61 1014.4
20260903192538 92 136 0.9 2.6 0.00 0.00 0.00 60 1014.5
20260903191638 93 307 0.9 2.6 0.00 0.00 0.00 60 1014.7
20260903190738 94 298 0.9 2.6 0.00 0.00 0.00 60 1014.8
20260903185838 93 215 0.9 1.7 0.00 0.00 0.00 60 1014.8
20260903184938 93 300 0.9 0.9 0.00 0.00 0.00 61 1014.8
20260903184037 93 103 0.0 2.6 0.00 0.00 0.00 62 1014.8
20260903183137 92 307 0.0 1.7 0.00 0.00 0.00 63 1014.9
20260903182238 92 305 0.9 0.9 0.00 0.00 0.00 63 1015.0
20260903181338 92 281 0.9 1.7 0.00 0.00 0.00 64 1015.2
20260903180437 92 307 1.7 2.6 0.00 0.00 0.00 62 1015.2
20260903175539 92 304 0.9 4.3 0.00 0.00 0.00 64 1015.2
20260903174637 92 295 0.0 0.9 0.00 0.00 0.00 63 1015.4
20260903173737 92 309 1.7 2.6 0.00 0.00 0.00 65 1015.4
20260903172840 92 198 0.9 5.2 0.00 0.00 0.00 66 1015.4
20260903171937 92 348 0.0 0.9 0.00 0.00 0.00 67 1015.5
20260903171037 91 300 0.9 1.7 0.00 0.00 0.00 66 1015.6
20260903170137 90 176 0.0 1.7 0.00 0.00 0.00 69 1015.6
20260903165237 90 305 1.7 6.1 0.00 0.00 0.00 67 1015.7
20260903164337 90 317 0.0 1.7 0.00 0.00 0.00 69 1015.8
20260903163438 90 306 0.9 2.6 0.00 0.00 0.00 70 1015.9
20260903162538 89 302 0.9 1.7 0.00 0.00 0.00 70 1015.9
20260903160738 89 185 0.9 1.7 0.00 0.00 0.00 72 1016.2
20260903155836 88 316 0.9 2.6 0.00 0.00 0.00 72 1016.2
20260903154938 88 307 1.7 2.6 0.00 0.00 0.00 73 1016.1